[[{"header":{"parameterUnit":"m.s-1","parameterCategory":1,"la1":30.2991,"la2":30.254,"lo1":-89.0895,"lo2":-89.0444,"dy":0.0017,"dx":0.0017,"nx":28,"ny":28,"refTime":"2024-08-08T03:00:00:Z","depth":0,"parameterNumber":2,"parameterNumberName":"U-component_of_WINDS"},"data":[0,0,0,0,0,0,0,0,0,0,0,0,0,0,0,0,0,0,0,0,0,0,0,0,0,0,0,0,0,0,0,0,0,0,0,0,0,0,0,0,0,0,0,0,0,0,0,0,0,0,0,0,0,0,0,0,0,0,3.2135,3.2136,0,3.2177,3.2177,3.2178,3.2086,3.2083,3.208,3.2077,3.2122,3.2126,3.213,0,0,0,0,0,0,0,0,0,0,0,0,0,3.1979,3.1982,3.2135,3.2136,3.2136,3.2177,3.2177,3.2178,3.2086,3.2083,3.2079,3.2076,3.212,3.2125,3.213,0,0,0,0,0,0,0,0,0,0,0,0,0,3.2037,3.1983,3.2135,3.2095,3.2092,3.2177,3.2177,3.2178,3.2087,3.2083,3.2078,3.2074,3.2119,3.2125,3.2131,3.2256,0,0,3.2149,3.2151,0,0,0,0,0,0,0,0,3.2033,3.2042,3.2101,3.2098,3.2095,3.2121,3.2138,3.2204,3.2088,3.2089,3.2077,3.2072,3.2125,3.2131,3.2148,3.2258,3.226,3.2149,3.2153,3.2155,3.2157,0,0,0,0,0,0,0,3.2029,3.204,3.2152,3.2102,3.2098,3.2076,3.208,3.2151,3.2132,3.2089,3.2082,3.2088,3.2123,3.2143,3.2149,3.2261,3.2149,3.2154,3.2158,3.216,3.2478,3.2482,0,0,0,0,0,0,3.203,3.2037,3.215,3.2153,3.2052,3.2083,3.2086,3.2117,3.2131,3.2128,3.2092,3.2084,3.2135,3.2142,3.215,3.2299,3.2155,3.2161,3.2164,3.2473,3.2479,3.2484,0,0,0,0,0,0,3.2027,3.2041,3.2149,3.2093,3.2105,3.209,3.2126,3.2121,3.214,3.2133,3.2129,3.2115,3.2131,3.2141,3.2231,3.2299,3.2164,3.2169,3.2467,3.2475,3.2482,3.2598,0,0,0,0,0,0,3.2023,3.2041,3.2088,3.2095,3.2109,3.2228,3.213,3.2125,3.215,3.214,3.2154,3.2152,3.2129,3.2222,3.2237,3.2305,3.2174,3.2461,3.2471,3.2479,3.2588,3.2608,3.2626,0,0,0,0,0,3.2018,3.2119,3.209,3.2104,3.2167,3.2232,3.224,3.2211,3.2156,3.2204,3.22,3.2152,3.2289,3.2232,3.2247,3.2319,3.2457,3.2468,3.2479,3.2579,3.2604,3.2625,0,0,0,0,0,0,3.212,3.2119,3.2087,3.2194,3.2214,3.2217,3.2276,3.2238,3.2274,3.2263,3.2225,3.2229,3.2326,3.2331,3.2268,3.2442,3.2364,3.2378,3.2435,3.2459,3.2478,3.2475,3.2178,0,0,0,0,0,3.2155,3.2208,3.2204,3.2298,3.231,3.2291,3.2319,3.2294,3.2314,3.2322,3.2324,3.2346,3.2394,3.2426,3.247,3.2588,3.2591,3.2644,3.2663,3.2679,3.2693,3.2757,3.2781,3.252,3.252,3.252,0,0,3.2228,3.2233,3.2269,3.2319,3.2331,3.2388,3.2299,3.2362,3.2404,3.2332,3.2416,3.2419,3.2441,3.2545,3.2591,3.2552,3.2765,3.2693,3.2705,3.2711,3.2771,3.2796,3.2818,3.2528,3.2526,3.2525,0,0,3.2389,3.2398,3.2478,3.2493,3.2513,3.2501,3.252,3.2529,3.2528,3.2612,3.256,3.2609,3.2692,3.271,3.2731,3.29,3.2859,3.2916,3.3015,3.3078,3.3099,3.3117,3.3179,3.3202,3.2929,3.2929,3.2929,0,3.2477,3.2559,3.2524,3.2592,3.2616,3.2552,3.2634,3.265,3.2685,3.2703,3.2658,3.2763,3.2772,3.2881,3.2923,3.2941,3.2963,3.2914,3.3099,3.3116,3.3133,3.3192,3.3215,3.2936,3.2935,3.2934,3.2934,0,3.2668,3.2726,3.2788,3.2822,3.2853,3.2927,3.2905,3.2941,3.2914,3.2906,3.2994,3.3003,3.3049,3.3072,3.3047,3.3179,3.3154,3.3105,3.3026,3.3165,3.322,3.3242,3.2946,3.2943,3.2941,3.294,0,0,3.2895,3.291,3.2933,3.2949,3.2967,3.3012,3.3083,3.3127,3.316,3.3185,3.3246,3.3318,3.3273,3.3296,3.3272,3.3327,3.3463,3.3271,3.3271,3.3308,3.3611,3.365,3.3676,3.3435,3.3439,3.3443,3.361,0,3.3057,3.3179,3.3151,3.3273,3.3327,3.3268,3.3331,3.3349,3.3344,3.339,3.3385,3.3437,3.3373,3.3387,3.3439,3.3436,3.3524,3.3423,3.3493,3.3496,3.3491,3.3704,3.3745,3.3902,3.3631,3.3635,3.3637,0,3.3261,3.3295,3.3422,3.3433,3.3454,3.3511,3.355,3.3594,3.3615,3.3607,3.3634,3.3599,3.3672,3.3591,3.3692,3.3624,3.365,3.3653,3.3659,3.3665,3.3576,3.3719,3.3952,3.3976,3.367,3.3668,3.3665,0,3.3417,3.3494,3.358,3.3595,3.3609,3.3651,3.3659,3.3675,3.3704,3.3737,3.3756,3.3798,3.3822,3.3856,3.3834,3.3777,3.394,3.3857,3.3937,3.3938,3.3975,3.3973,3.4217,3.399,3.3989,3.3989,3.3988,0,3.3601,3.3682,3.3651,3.3704,3.3794,3.376,3.385,3.3851,3.3866,3.3919,3.387,3.3922,3.3889,3.3939,3.3922,3.4009,3.4019,3.4017,3.4012,3.4022,3.4023,3.404,3.4029,3.3995,3.3994,3.3992,3.3991,0,3.3791,3.3773,3.3863,3.3869,3.3873,3.3939,3.3944,3.3994,3.3986,3.4054,3.4069,3.4056,3.4111,3.4092,3.4152,3.4141,3.4252,3.4232,3.4246,3.4241,3.4323,3.4317,3.4588,3.4623,3.4372,3.4374,3.4376,0,3.391,3.3971,3.3983,3.4015,3.4027,3.4079,3.4108,3.4078,3.411,3.4139,3.4187,3.4238,3.4277,3.4369,3.4366,3.4412,3.4393,3.4486,3.44,3.4409,3.4397,3.4395,3.4401,3.4503,3.4506,3.4509,3.451,0,3.4125,3.4113,3.4156,3.4198,3.4234,3.4265,3.4291,3.4321,3.4292,3.4331,3.4387,3.4418,3.4479,3.4531,3.4573,3.4582,3.4543,3.4537,3.4559,3.4571,3.4577,3.4577,3.4294,3.4531,3.4529,3.4528,3.4527,3.4526,3.4284,3.4336,3.4354,3.4404,3.4421,3.4447,3.4495,3.4492,3.4538,3.4586,3.4565,3.463,3.465,3.4702,3.4717,3.4768,3.4733,3.4763,3.4772,3.478,3.4792,3.4567,3.4776,3.4775,3.4774,3.4774,3.4773,0,3.4498,3.4506,3.4553,3.4592,3.4632,3.459,3.4618,3.4655,3.4712,3.4734,3.4774,3.4839,3.489,3.4891,3.4938,3.498,3.4963,3.4993,3.4991,3.4994,3.4819,3.4797,3.5006,3.5006,3.5006,3.5006,3.5006,3.5006,3.4615,3.4701,3.4691,3.4786,3.4793,3.4857,3.4876,3.4901,3.4918,3.4993,3.5035,3.5035,3.5048,3.5097,3.5142,3.5141,3.5162,3.5199,3.5192,3.5029,3.5006,3.4984,3.4963,3.5204,3.5204,3.5362,3.5364,3.5365]},{"header":{"parameterUnit":"m.s-1","parameterCategory":1,"la1":30.2991,"la2":30.254,"lo1":-89.0895,"lo2":-89.0444,"dy":0.0017,"dx":0.0017,"nx":28,"ny":28,"refTime":"2024-08-08T03:00:00:Z","depth":0,"parameterNumber":3,"parameterNumberName":"V-component_of_WINDS"},"data":[0,0,0,0,0,0,0,0,0,0,0,0,0,0,0,0,0,0,0,0,0,0,0,0,0,0,0,0,0,0,0,0,0,0,0,0,0,0,0,0,0,0,0,0,0,0,0,0,0,0,0,0,0,0,0,0,0,0,-2.4216,-2.4217,0,-2.4325,-2.4326,-2.4327,-2.4332,-2.4331,-2.4329,-2.4328,-2.444,-2.4444,-2.4448,0,0,0,0,0,0,0,0,0,0,0,0,0,-2.4012,-2.4015,-2.4215,-2.4217,-2.4218,-2.4324,-2.4326,-2.4327,-2.4332,-2.4331,-2.4329,-2.4327,-2.4438,-2.4443,-2.4448,0,0,0,0,0,0,0,0,0,0,0,0,0,-2.4108,-2.4017,-2.4215,-2.4233,-2.4236,-2.4324,-2.4326,-2.4328,-2.4332,-2.433,-2.4329,-2.4327,-2.4437,-2.4443,-2.4449,-2.4526,0,0,-2.4468,-2.4471,0,0,0,0,0,0,0,0,-2.4103,-2.4116,-2.4229,-2.4232,-2.4235,-2.4313,-2.4295,-2.4394,-2.4333,-2.4296,-2.4328,-2.4326,-2.4399,-2.4408,-2.4433,-2.4532,-2.4536,-2.4469,-2.4472,-2.4475,-2.4477,0,0,0,0,0,0,0,-2.4096,-2.4111,-2.4259,-2.4231,-2.4235,-2.4236,-2.4248,-2.4314,-2.4357,-2.4299,-2.43,-2.4312,-2.44,-2.4427,-2.4436,-2.4538,-2.4468,-2.4474,-2.4478,-2.448,-2.4706,-2.4709,0,0,0,0,0,0,-2.4086,-2.4106,-2.4255,-2.4262,-2.4163,-2.4241,-2.4254,-2.429,-2.4356,-2.4364,-2.4314,-2.4312,-2.4417,-2.4428,-2.444,-2.4535,-2.4475,-2.4481,-2.4485,-2.4704,-2.4707,-2.4709,0,0,0,0,0,0,-2.4082,-2.4099,-2.4251,-2.4184,-2.4203,-2.4247,-2.4287,-2.4293,-2.432,-2.4368,-2.4375,-2.4333,-2.4416,-2.4431,-2.4505,-2.4539,-2.4484,-2.4489,-2.4702,-2.4705,-2.4708,-2.4726,0,0,0,0,0,0,-2.4076,-2.4098,-2.4127,-2.4185,-2.4207,-2.4314,-2.4289,-2.4297,-2.433,-2.4329,-2.4388,-2.4395,-2.4416,-2.4496,-2.4511,-2.4546,-2.4494,-2.4699,-2.4703,-2.4707,-2.4723,-2.473,-2.4736,0,0,0,0,0,-2.4068,-2.4128,-2.4129,-2.4147,-2.4245,-2.4316,-2.4329,-2.4351,-2.4333,-2.4363,-2.4394,-2.4394,-2.4533,-2.4503,-2.4521,-2.4558,-2.4697,-2.4702,-2.4707,-2.472,-2.4728,-2.4735,0,0,0,0,0,0,-2.4073,-2.4136,-2.4137,-2.4217,-2.4261,-2.4317,-2.4356,-2.4359,-2.4409,-2.4406,-2.4431,-2.4445,-2.4518,-2.4546,-2.4512,-2.4637,-2.4613,-2.4621,-2.4616,-2.4625,-2.4631,-2.4623,-2.45,0,0,0,0,0,-2.4083,-2.4136,-2.4188,-2.4253,-2.4275,-2.4312,-2.4343,-2.4357,-2.4403,-2.4422,-2.4459,-2.4504,-2.4558,-2.4593,-2.4645,-2.4727,-2.474,-2.4761,-2.4768,-2.4773,-2.478,-2.4826,-2.4836,-2.4726,-2.4726,-2.4726,0,0,-2.4105,-2.4146,-2.4177,-2.4255,-2.4291,-2.4345,-2.4327,-2.4385,-2.4425,-2.4431,-2.4503,-2.4532,-2.4584,-2.4662,-2.4699,-2.4688,-2.4814,-2.4779,-2.4783,-2.4788,-2.4832,-2.4843,-2.4852,-2.4729,-2.4729,-2.4728,0,0,-2.4173,-2.4208,-2.4267,-2.4304,-2.4358,-2.4382,-2.4396,-2.4452,-2.4471,-2.4544,-2.4549,-2.4598,-2.469,-2.4728,-2.4759,-2.4841,-2.4842,-2.4857,-2.4891,-2.4936,-2.4944,-2.4952,-2.4982,-2.4992,-2.4865,-2.4865,-2.4865,0,-2.4193,-2.4274,-2.4297,-2.4355,-2.4389,-2.4397,-2.4457,-2.4491,-2.456,-2.4583,-2.457,-2.4687,-2.4723,-2.481,-2.483,-2.4855,-2.4872,-2.4851,-2.4941,-2.4949,-2.4957,-2.4986,-2.4997,-2.4866,-2.4866,-2.4866,-2.4866,0,-2.4297,-2.4353,-2.4394,-2.446,-2.4499,-2.4558,-2.459,-2.4626,-2.4636,-2.4662,-2.4737,-2.478,-2.4842,-2.4863,-2.4874,-2.4953,-2.4944,-2.4936,-2.4912,-2.4968,-2.4996,-2.5007,-2.4868,-2.4868,-2.4867,-2.4867,0,0,-2.4369,-2.4448,-2.4463,-2.4493,-2.4554,-2.4599,-2.4658,-2.4718,-2.4749,-2.4797,-2.4847,-2.4926,-2.4919,-2.4954,-2.4969,-2.5008,-2.5071,-2.4995,-2.4996,-2.5007,-2.5161,-2.5167,-2.5179,-2.5072,-2.5074,-2.5076,-2.5157,0,-2.4443,-2.4549,-2.4571,-2.4662,-2.4715,-2.4724,-2.4775,-2.4819,-2.4844,-2.4893,-2.4921,-2.4977,-2.4963,-2.4984,-2.5023,-2.5055,-2.5102,-2.5049,-2.512,-2.5122,-2.5106,-2.5193,-2.52,-2.5274,-2.5167,-2.5169,-2.5171,0,-2.4544,-2.4594,-2.469,-2.4745,-2.4768,-2.4814,-2.4872,-2.4918,-2.4968,-2.4983,-2.5023,-2.5034,-2.5097,-2.507,-2.5156,-2.512,-2.515,-2.517,-2.5173,-2.5181,-2.5149,-2.5203,-2.5298,-2.5309,-2.5188,-2.5186,-2.5185,0,-2.4587,-2.4679,-2.4749,-2.4775,-2.484,-2.4872,-2.4901,-2.4949,-2.4984,-2.5034,-2.5058,-2.5114,-2.5146,-2.519,-2.5216,-2.5194,-2.53,-2.5275,-2.5316,-2.5315,-2.5338,-2.5336,-2.5438,-2.5357,-2.5357,-2.5357,-2.5356,0,-2.4668,-2.4727,-2.4769,-2.4812,-2.4878,-2.4904,-2.4969,-2.4997,-2.504,-2.5089,-2.51,-2.5145,-2.5177,-2.5227,-2.5248,-2.5317,-2.5331,-2.5346,-2.5351,-2.5345,-2.5343,-2.5365,-2.536,-2.536,-2.5359,-2.5358,-2.5358,0,-2.4728,-2.4759,-2.4835,-2.4891,-2.4907,-2.4953,-2.5001,-2.5043,-2.5069,-2.5131,-2.5147,-2.5188,-2.5248,-2.5278,-2.5353,-2.5367,-2.5445,-2.5446,-2.5428,-2.543,-2.5468,-2.5464,-2.5588,-2.5606,-2.5513,-2.5514,-2.5514,0,-2.4777,-2.4822,-2.4883,-2.4917,-2.4946,-2.5,-2.5036,-2.5063,-2.51,-2.5161,-2.5196,-2.5256,-2.5306,-2.5401,-2.5438,-2.5495,-2.5498,-2.5538,-2.5507,-2.55,-2.5499,-2.5496,-2.5501,-2.5543,-2.5544,-2.5545,-2.5545,0,-2.4861,-2.4874,-2.4926,-2.4983,-2.5025,-2.5072,-2.5117,-2.5144,-2.5179,-2.522,-2.5282,-2.532,-2.5397,-2.5457,-2.5517,-2.5547,-2.5552,-2.5555,-2.5567,-2.5562,-2.5549,-2.5557,-2.5443,-2.5552,-2.5551,-2.5551,-2.5551,-2.555,-2.4917,-2.4958,-2.5008,-2.5065,-2.5102,-2.5145,-2.5187,-2.5219,-2.527,-2.5335,-2.5348,-2.5413,-2.5462,-2.5543,-2.5576,-2.5627,-2.5619,-2.5636,-2.5641,-2.5645,-2.5647,-2.5541,-2.5638,-2.5638,-2.5638,-2.5638,-2.5638,0,-2.5002,-2.5035,-2.5087,-2.5151,-2.5196,-2.5197,-2.5248,-2.5285,-2.5343,-2.5388,-2.5437,-2.5508,-2.5566,-2.5608,-2.5668,-2.5701,-2.5705,-2.5716,-2.5714,-2.572,-2.5651,-2.5634,-2.5711,-2.5711,-2.5711,-2.5711,-2.5711,-2.5711,-2.5052,-2.5121,-2.514,-2.5229,-2.5261,-2.5325,-2.5354,-2.5393,-2.543,-2.5508,-2.5557,-2.5584,-2.5628,-2.5691,-2.5745,-2.5756,-2.5777,-2.5788,-2.5799,-2.5733,-2.5725,-2.5718,-2.5702,-2.5792,-2.5793,-2.5864,-2.5865,-2.5865]}]]